Theta_e
348 346 346 346 346 347 348 349 348 349 350 350 350 351 350 350 348 346 345 344 343 343 343 343 342 342 342 342 342 343 343 343 345 344 345 350 344 333 331 333 333 334 336 338 340 344 346 347 347 348 348 349 349 349 349 349 348 348 348 348 348 347 347 347 346 345 344 345 345 343 342 342 341 341 343 344 344 345 345 345 345 345 345 345 345
346 346 348 349 349 349 348 348 349 349 350 351 351 351 350 350 350 348 347 344 343 344 343 342 342 342 343 343 343 343 344 344 345 345 343 348 348 339 335 336 335 334 334 335 335 337 340 343 345 346 347 347 347 348 348 347 347 347 346 345 344 344 343 343 341 340 339 340 340 337 337 337 335 337 340 341 342 344 345 346 346 346 346 345 345
347 349 350 351 350 348 348 349 350 350 350 351 350 351 351 352 352 351 350 347 344 344 342 341 341 342 344 344 344 344 345 346 344 345 345 347 350 346 340 337 337 337 336 336 336 336 336 338 340 341 341 341 341 341 341 341 341 340 340 339 339 339 339 338 337 337 337 337 337 337 337 337 337 337 338 338 339 341 342 343 343 344 344 345 345
349 349 350 350 349 348 349 350 351 352 352 353 353 353 352 353 356 355 352 350 347 345 343 342 341 342 344 344 345 345 345 347 344 343 345 346 350 351 346 343 339 337 337 337 336 336 337 337 337 337 336 337 336 336 337 337 338 338 338 338 338 338 338 338 338 338 338 339 339 340 340 340 340 340 340 340 340 340 341 341 341 341 342 344 346
350 350 349 350 350 348 350 352 353 354 354 355 355 354 353 352 355 354 351 351 350 348 346 343 342 343 343 344 345 344 344 345 344 343 345 346 348 350 350 351 348 342 339 339 338 338 337 337 337 337 337 338 338 339 339 339 339 340 340 340 340 340 341 341 341 342 342 343 343 343 343 343 343 343 343 343 343 343 343 342 342 342 344 345 347
353 352 351 350 350 350 352 353 355 356 356 356 354 353 354 353 352 352 351 351 351 351 349 345 344 344 344 344 345 344 344 345 344 344 345 346 347 348 348 352 353 350 345 343 342 341 341 341 341 341 341 342 343 343 343 343 343 343 344 344 344 344 344 345 345 346 346 347 347 348 348 348 348 348 348 347 347 346 345 344 343 344 344 344 346
356 356 353 351 351 352 353 355 356 356 355 356 355 354 355 354 354 353 352 351 351 352 351 348 346 345 345 345 344 345 345 344 343 343 343 344 346 348 349 350 353 353 352 352 348 343 343 344 344 344 345 345 346 345 346 346 346 346 346 346 346 347 347 348 348 349 349 349 349 349 349 349 349 349 349 348 347 346 345 344 344 345 345 346 348
357 358 355 351 351 353 354 356 357 356 355 357 356 355 355 355 355 356 355 353 351 352 352 350 347 346 346 344 344 346 344 343 344 343 343 344 344 345 347 349 350 350 351 355 354 346 343 345 345 345 346 347 347 347 347 347 347 347 347 347 347 348 348 349 349 350 349 348 348 348 347 346 345 345 344 344 344 343 344 345 346 347 348 350 351
357 359 357 351 352 353 354 357 358 356 357 358 356 356 356 356 357 357 358 357 352 351 352 350 348 347 346 344 343 344 343 344 344 342 342 344 344 344 345 346 347 351 351 351 353 351 347 344 342 345 345 346 347 346 347 347 346 347 347 348 348 349 349 349 349 349 347 347 348 348 348 347 345 343 342 341 342 343 344 345 347 348 350 351 352
357 358 357 353 352 353 355 357 357 357 359 358 356 357 356 356 358 356 358 359 353 351 351 349 347 345 344 342 343 343 343 343 344 342 341 342 342 342 344 345 345 347 349 346 347 352 353 349 346 349 347 344 345 345 345 346 346 347 347 348 348 349 349 348 349 348 345 347 349 348 349 349 348 347 345 343 342 342 343 345 346 348 349 351 352
357 357 358 354 354 354 356 357 357 358 358 356 356 357 357 359 358 358 360 359 355 353 350 348 345 344 343 342 343 344 342 341 343 344 342 341 342 342 342 345 344 343 344 344 345 346 350 354 355 356 354 347 342 343 344 344 345 347 347 348 348 347 347 347 348 347 343 346 348 348 350 350 350 351 350 348 345 342 342 343 345 346 348 349 350
357 358 359 358 357 356 357 358 357 357 357 356 357 356 358 360 357 358 362 360 355 352 349 346 343 344 344 343 344 344 343 343 343 342 342 341 342 344 341 341 343 343 343 343 345 345 345 352 354 354 357 351 341 341 342 344 345 347 347 347 347 347 347 347 349 346 344 344 346 349 352 353 352 353 352 352 350 347 344 342 343 345 346 347 347
359 360 360 359 359 358 359 360 358 359 359 358 358 358 358 360 359 359 361 358 356 352 349 348 343 344 346 345 344 342 342 345 344 341 341 341 341 343 341 340 342 342 343 343 345 346 344 348 349 348 353 354 351 345 340 344 346 345 347 346 346 347 346 348 350 349 347 345 346 349 352 353 353 354 354 353 353 352 349 344 342 342 343 344 344
361 361 361 360 360 360 360 361 360 358 359 358 358 359 359 360 360 359 357 357 355 352 352 351 346 346 346 344 345 345 344 344 344 342 340 339 339 341 341 342 343 341 342 342 343 346 345 344 345 346 348 353 357 353 349 354 351 345 346 346 346 347 347 350 351 351 351 349 349 350 352 352 353 353 353 354 354 354 354 350 345 342 342 342 342
361 360 360 361 361 361 359 360 361 358 358 361 359 358 359 360 360 357 356 356 354 351 353 353 349 348 347 347 346 345 347 345 345 343 340 339 339 339 341 341 341 340 341 342 342 343 343 343 344 346 349 351 352 353 355 357 352 345 345 346 346 347 347 350 352 351 352 352 352 352 352 353 353 353 353 354 354 355 355 354 351 345 342 342 342
359 358 358 360 361 361 360 359 359 358 358 360 359 358 358 359 357 357 356 353 353 352 351 352 352 352 354 354 349 349 352 348 345 344 341 341 339 338 342 342 339 341 343 343 340 341 342 343 347 349 351 352 350 350 353 353 350 348 347 347 346 346 347 349 351 352 352 353 353 353 353 353 354 354 354 354 355 355 354 355 355 351 345 342 343
358 358 358 359 360 360 361 360 359 358 358 357 358 357 357 356 355 358 357 354 356 355 351 351 351 353 357 356 355 355 355 349 345 347 344 342 341 338 341 341 340 341 343 342 338 341 344 343 346 348 348 351 350 349 351 352 353 356 357 354 348 346 346 347 350 352 352 353 353 353 353 354 354 354 354 355 354 355 354 354 355 355 351 345 343
358 359 359 359 360 360 361 361 359 358 358 358 356 353 355 356 355 357 358 356 358 356 352 351 350 351 354 354 354 355 355 349 346 347 344 343 342 341 341 340 339 341 343 343 341 342 343 343 345 345 345 349 350 348 350 349 350 354 357 354 349 346 346 347 350 351 352 352 352 353 353 353 353 353 354 354 354 355 354 354 353 354 355 350 345
358 360 360 360 361 361 360 361 359 358 358 358 356 354 355 355 355 357 358 357 360 358 354 353 353 353 352 351 350 350 351 351 350 349 348 346 344 343 342 341 341 342 343 343 344 343 342 342 344 344 344 347 348 348 349 347 348 351 353 350 348 349 348 348 350 350 351 352 352 352 352 353 353 353 353 354 354 354 354 355 354 354 355 353 349
359 360 360 360 361 361 360 361 360 359 358 358 357 356 356 356 356 357 358 359 360 360 358 357 357 355 352 352 352 348 347 349 349 351 353 349 346 346 345 343 342 342 343 343 343 343 343 342 342 342 344 345 345 346 347 348 350 354 356 353 350 350 350 350 351 351 352 352 352 352 352 352 353 353 354 354 354 355 355 355 354 354 354 354 352
360 360 359 360 361 361 361 361 362 359 357 357 356 356 357 358 358 359 360 361 359 358 359 358 358 356 354 355 354 351 350 348 345 348 350 351 351 349 346 345 345 343 341 342 343 342 343 344 342 342 344 345 345 344 346 348 348 352 356 352 350 351 351 350 349 348 349 350 352 352 352 352 352 353 354 354 354 354 354 354 353 353 352 353 353
358 359 359 360 360 360 360 360 360 359 357 358 357 357 358 359 359 361 361 361 359 357 357 357 357 357 356 356 355 356 355 352 349 348 347 351 352 350 347 346 347 346 341 341 344 342 342 344 343 344 346 345 344 345 346 348 346 348 351 350 350 350 350 350 345 342 343 345 348 351 352 352 352 352 352 351 353 353 353 353 351 349 349 351 352
356 357 357 358 360 360 359 359 359 358 357 358 357 357 357 358 359 360 360 360 360 359 357 357 357 356 355 355 355 356 355 352 353 351 348 350 350 348 348 348 347 346 344 344 344 343 342 344 343 346 348 346 345 345 347 350 348 347 350 352 351 349 351 352 344 338 340 342 344 347 349 350 350 350 350 350 351 352 352 352 349 344 344 347 349
357 356 354 357 360 360 359 359 360 359 358 359 359 358 357 357 359 360 361 361 360 359 357 356 357 356 354 354 353 353 352 350 352 352 350 351 350 347 347 349 349 347 346 346 345 344 344 344 343 344 347 347 347 348 349 349 350 351 354 354 350 348 353 355 347 339 339 342 345 346 347 348 349 350 350 349 350 350 351 351 348 344 344 346 347
358 356 355 356 359 360 360 361 363 363 362 362 362 362 360 359 360 360 361 361 360 361 359 357 358 356 354 355 353 351 351 350 351 351 350 351 350 350 352 352 349 347 348 348 346 344 342 343 345 343 346 347 346 349 351 348 351 357 356 351 348 351 355 355 350 342 337 339 342 344 345 346 347 348 348 348 348 348 349 350 348 345 344 345 347
358 356 356 356 357 358 360 362 364 364 364 364 364 364 363 360 360 360 359 360 361 361 359 357 357 356 355 356 354 352 351 350 351 349 350 350 350 353 356 356 352 347 348 350 348 345 343 343 346 346 348 350 345 346 350 348 349 354 353 348 351 355 355 353 353 346 336 334 336 337 338 338 340 342 344 345 347 347 348 348 347 345 343 343 345
357 357 357 357 358 360 360 362 364 363 362 362 362 363 363 360 362 362 359 358 360 361 359 358 357 356 356 357 355 354 352 351 352 351 351 351 353 353 356 360 359 352 349 350 349 348 347 345 347 348 349 350 348 349 351 348 347 350 350 349 352 354 352 351 352 344 334 334 336 336 336 337 337 338 339 340 342 344 345 347 347 345 344 343 345
358 358 357 357 359 361 360 361 364 364 362 362 361 362 363 361 362 364 360 359 361 361 360 358 358 356 356 357 356 354 355 354 354 353 353 354 355 356 358 360 360 357 355 355 354 351 349 348 348 349 349 350 351 349 347 347 349 351 351 350 350 351 352 352 347 339 336 339 339 339 339 339 338 338 338 338 338 339 340 343 345 345 346 346 347
358 358 357 357 358 360 359 359 361 361 361 361 360 363 365 361 361 363 361 359 362 362 360 359 358 356 355 356 356 355 356 357 354 353 355 355 355 357 359 359 360 360 359 360 361 355 350 350 349 350 351 352 353 350 347 348 350 350 349 349 350 350 352 349 341 338 342 345 344 344 342 340 339 339 339 339 339 338 337 339 341 344 346 346 346
356 356 357 357 358 359 359 360 360 360 361 361 360 363 364 360 360 363 362 361 364 363 361 360 358 357 356 356 357 356 356 357 355 354 357 358 357 357 358 359 359 360 360 360 360 354 348 348 348 349 351 351 351 350 347 346 347 347 348 350 350 351 351 347 341 343 348 348 347 347 345 340 338 338 339 339 339 339 339 338 339 341 344 345 346
356 358 359 358 358 358 359 360 361 361 361 360 361 363 363 360 360 360 360 361 363 363 361 358 356 358 358 358 359 358 357 358 356 355 357 357 358 357 358 360 360 359 359 359 358 356 349 346 346 348 349 349 350 349 347 345 344 346 349 351 351 350 349 347 346 347 348 347 346 347 346 342 339 339 339 341 340 341 341 340 340 340 341 342 343
356 358 358 358 358 358 358 357 358 359 359 359 359 362 363 361 359 358 358 360 361 361 360 358 356 358 360 360 361 360 359 360 358 356 357 356 357 357 358 359 359 358 359 359 359 358 353 349 347 347 347 349 348 348 349 348 344 345 348 349 349 348 347 347 346 345 344 344 344 346 346 342 340 340 342 342 342 342 343 343 343 342 341 340 340
356 357 358 358 358 359 357 357 356 357 359 359 359 361 363 362 361 358 358 360 361 361 361 360 359 359 361 361 360 360 360 359 357 356 355 355 355 356 356 357 357 358 359 360 359 358 356 353 351 350 349 349 347 347 349 348 346 346 347 348 347 347 346 344 344 344 344 342 342 345 344 341 340 342 344 344 344 344 345 345 345 345 344 343 341
356 357 357 357 358 358 357 357 357 358 361 361 359 360 361 363 363 359 357 359 359 360 361 361 360 359 360 360 359 359 358 356 356 355 353 353 352 353 355 356 355 356 356 356 356 356 357 356 353 352 349 347 347 346 347 347 347 347 347 348 348 346 344 342 342 342 341 340 342 342 341 339 340 343 345 346 347 347 348 348 348 347 345 344 342
355 356 357 357 358 358 356 358 358 359 362 362 359 359 361 363 364 361 358 359 360 360 360 359 359 358 357 358 358 357 355 353 355 354 352 351 350 350 351 352 351 352 352 353 355 356 357 357 355 352 349 348 349 349 348 347 347 346 347 347 347 346 345 343 342 341 340 340 341 340 339 339 342 344 346 348 348 350 350 351 351 350 346 344 343
355 355 356 356 358 359 357 359 360 360 361 361 358 358 360 362 362 360 359 360 361 361 360 358 358 358 356 356 356 355 354 352 353 354 352 350 349 349 350 351 351 351 352 353 354 355 356 357 356 355 353 353 353 351 349 348 347 347 348 347 346 345 344 342 341 340 340 341 340 339 340 341 343 346 348 349 350 351 352 352 353 352 349 345 343
353 354 356 356 358 360 358 358 360 360 360 360 359 357 357 358 358 358 357 358 359 359 358 357 357 357 356 355 354 353 353 353 352 352 351 349 349 349 349 349 349 349 351 352 353 354 356 357 357 356 355 354 353 351 350 349 350 349 348 348 347 346 345 345 344 342 341 341 340 341 342 343 344 347 349 350 350 352 353 353 354 353 352 348 345
353 353 355 355 356 359 359 358 357 359 359 359 359 358 358 357 358 358 357 357 358 358 357 357 356 356 355 353 353 353 352 352 351 350 349 349 350 349 349 349 349 350 351 351 351 352 353 354 355 354 352 350 349 348 348 349 349 349 348 350 351 350 349 348 347 346 345 344 344 345 346 346 346 348 349 349 351 353 353 354 354 354 354 353 350
353 353 354 354 355 356 358 357 355 356 359 358 358 359 358 357 358 359 358 357 357 357 357 355 354 354 353 353 353 352 352 351 351 350 350 349 349 349 349 349 350 350 350 350 349 349 350 350 350 349 348 347 347 348 348 348 348 349 350 350 350 349 349 350 351 351 350 349 350 350 348 346 345 347 348 350 352 353 353 354 355 354 354 355 354
353 353 352 353 355 354 355 356 354 354 356 357 357 358 359 358 358 359 359 358 357 357 356 355 354 352 352 351 352 351 351 352 352 352 351 349 349 349 348 347 348 349 351 351 349 349 350 351 350 349 348 348 349 348 348 348 348 349 348 348 348 348 349 350 352 353 353 353 353 352 348 347 348 348 350 352 353 354 355 355 355 354 355 356 354
352 353 353 352 353 354 354 354 354 353 353 354 355 356 357 358 358 357 357 356 355 355 355 354 353 352 351 351 350 350 350 350 351 352 352 350 348 348 349 350 352 354 355 355 354 353 353 352 351 350 348 348 347 347 347 347 347 348 348 348 349 350 350 351 353 354 356 356 355 353 353 354 354 353 353 355 356 355 354 353 354 355 355 354 352
352 353 354 353 352 352 353 354 353 352 351 350 351 353 354 356 357 356 355 353 353 354 355 354 354 352 351 350 349 349 349 349 350 350 351 349 347 346 348 350 353 356 357 357 355 353 352 351 349 347 347 347 348 349 350 351 351 353 354 354 354 354 355 357 359 358 359 358 357 357 357 358 358 357 356 357 357 355 353 353 354 355 354 353 354
355 355 356 355 354 352 352 352 353 353 351 348 348 349 351 354 355 355 353 352 353 355 354 354 354 352 350 349 347 347 347 348 349 350 349 348 347 346 346 346 348 351 354 355 355 355 353 351 350 350 350 351 353 355 355 356 356 357 359 359 359 359 358 359 360 360 360 360 360 359 359 359 360 359 357 357 356 354 352 353 353 353 354 355 357
356 357 356 356 355 354 353 352 352 351 350 348 346 347 349 351 352 352 351 350 350 351 351 351 352 351 350 348 347 346 346 347 348 350 352 353 352 350 348 347 346 346 348 349 352 355 355 355 357 357 356 356 358 358 359 360 359 360 360 360 359 360 359 359 360 361 360 360 361 361 361 360 360 358 357 356 355 352 351 352 352 353 355 356 357
357 357 357 356 356 355 353 352 350 348 347 346 345 346 348 350 351 350 349 348 348 348 349 349 349 349 351 350 350 350 348 347 347 348 352 356 357 356 355 354 353 351 350 349 349 351 351 353 356 358 358 359 359 360 360 359 359 360 360 359 359 359 359 359 360 360 360 360 361 361 361 361 360 358 357 357 355 354 352 352 352 353 355 356 357
357 358 357 356 355 354 353 352 349 348 348 348 348 348 349 350 350 349 349 348 348 347 348 349 349 349 350 350 352 352 351 351 351 351 352 356 358 359 361 362 361 360 359 357 357 357 356 356 356 358 359 359 359 360 359 357 357 358 358 358 359 358 358 359 359 358 359 359 360 361 361 361 359 358 357 356 356 356 355 354 354 355 356 357 357
356 357 356 356 355 353 353 352 349 349 351 351 351 349 350 350 349 349 350 350 349 347 348 350 350 350 350 350 351 353 355 357 358 357 357 358 359 360 361 361 361 362 362 360 358 359 360 360 358 359 359 359 359 358 357 356 355 355 356 357 357 357 357 357 357 357 358 357 356 358 359 358 356 355 355 355 355 357 357 357 357 357 357 357 357
356 355 353 353 355 355 354 352 350 350 351 352 352 351 351 352 351 351 353 353 352 351 349 349 349 351 353 354 355 357 357 358 360 360 360 359 359 360 360 359 360 361 360 358 358 358 359 358 357 358 358 357 357 356 355 355 354 354 355 356 357 358 357 357 357 356 355 354 353 353 356 356 356 356 356 357 358 359 359 358 357 356 356 357 357
354 353 350 351 353 354 353 351 350 351 352 352 353 353 353 353 353 354 355 355 354 352 350 350 352 354 355 355 357 359 358 357 357 359 359 358 357 358 359 358 358 359 359 358 358 357 356 356 356 356 356 355 355 355 354 353 353 354 356 357 357 358 357 357 356 355 354 354 354 354 356 358 358 357 358 358 359 359 358 357 357 356 356 357 357
350 349 349 351 354 354 352 352 352 352 351 351 352 354 354 354 353 353 355 356 354 351 351 351 352 354 354 355 357 358 357 356 355 355 356 355 354 355 357 357 356 357 356 356 357 357 356 356 355 355 355 354 353 352 351 351 352 354 356 357 357 358 357 357 357 356 356 357 356 356 357 358 358 358 358 358 359 359 357 357 357 357 357 357 358
346 347 348 349 351 351 350 351 352 351 348 347 349 351 353 353 352 352 354 356 354 352 352 350 350 351 352 353 355 355 354 353 352 352 351 351 350 350 351 353 354 356 355 354 353 353 351 351 352 352 351 351 350 350 350 351 353 356 357 358 357 357 357 357 357 356 356 357 356 357 358 358 358 359 359 358 358 359 359 358 358 358 357 358 358
Wind_Speed
18 17 17 15 11 11 10 9 8 7 6 5 5 5 5 4 5 6 5 5 6 7 7 7 7 7 7 8 7 6 7 7 6 6 7 7 5 5 5 4 3 3 3 3 3 3 2 2 2 1 0 0 0 1 1 2 2 3 2 3 3 3 3 4 5 5 4 4 5 5 6 6 6 6 6 7 7 8 8 8 9 9 9 10 11
15 15 15 14 11 10 11 9 8 7 6 6 5 4 4 4 4 5 5 5 5 5 6 6 7 6 6 7 7 7 7 6 6 7 7 8 6 5 6 6 5 4 4 3 3 3 3 2 2 2 2 1 1 2 2 2 2 2 2 2 2 3 3 4 4 5 4 4 5 5 5 5 6 6 6 7 7 7 8 8 9 9 10 10 11
13 13 12 11 10 9 9 8 7 7 6 6 5 4 4 4 4 4 4 5 4 3 5 6 6 6 6 6 6 7 6 6 7 8 7 7 6 5 7 7 6 5 5 4 4 3 3 3 3 2 2 1 1 0 0 0 1 1 2 2 3 3 4 4 4 4 5 5 5 5 5 5 5 6 6 6 7 7 7 8 9 9 9 10 10
11 11 10 9 9 8 8 8 7 6 6 6 5 4 5 4 3 2 3 4 4 2 3 5 5 5 6 6 5 5 4 4 6 7 7 6 6 6 5 7 7 6 6 5 5 5 4 4 4 4 4 4 4 4 4 4 4 4 4 4 5 5 5 5 5 5 5 5 5 5 5 5 6 6 6 7 7 8 8 9 9 10 10 10 10
10 9 9 8 8 8 8 7 6 6 6 5 4 3 4 4 3 2 2 3 4 3 2 3 4 4 6 6 5 5 4 4 5 6 6 6 6 5 5 3 4 6 7 6 6 6 6 6 6 6 6 6 6 6 6 6 6 5 6 6 5 5 5 5 5 5 5 5 5 5 6 6 6 7 7 7 8 8 9 9 10 11 11 11 12
8 6 7 7 7 7 7 7 6 5 4 4 4 4 4 3 2 2 3 2 3 3 2 3 4 3 4 5 5 4 4 4 5 5 5 5 5 4 4 4 2 2 5 7 7 6 6 6 6 6 6 7 6 6 6 6 6 5 5 5 5 5 4 4 4 5 5 5 6 7 7 7 7 7 7 8 8 9 9 10 10 10 11 12 12
5 4 5 7 7 7 6 6 5 4 4 4 4 4 4 3 3 3 2 2 3 3 3 3 3 3 4 5 5 4 4 5 4 6 6 5 4 3 2 3 2 2 0 2 5 6 5 5 5 6 6 6 6 6 6 5 5 5 5 4 4 4 4 4 5 5 6 6 7 7 7 8 7 7 7 7 8 8 9 9 9 10 10 11 11
5 3 3 6 6 6 6 6 4 4 4 3 3 4 4 4 4 4 4 4 3 2 3 2 3 4 5 5 5 4 5 5 4 7 7 5 5 4 3 3 3 3 1 1 1 4 5 4 4 4 4 4 4 4 4 4 4 4 4 4 4 5 5 5 5 5 6 6 6 6 6 7 7 6 6 7 8 8 8 8 8 9 9 10 9
5 2 2 5 6 6 6 5 3 3 3 1 2 3 3 4 4 3 3 4 4 3 3 1 3 5 5 6 6 4 5 5 5 7 6 4 4 4 4 3 3 3 2 1 0 1 5 5 3 3 3 3 3 3 3 3 3 3 4 5 5 5 5 5 5 5 4 4 4 5 6 7 7 7 7 7 7 7 7 8 8 9 9 9 10
5 3 2 4 5 5 5 4 3 3 2 1 3 3 3 3 3 3 3 4 4 3 2 0 2 5 7 7 6 6 7 6 6 7 6 5 6 5 4 3 4 2 1 2 2 2 4 5 3 3 4 4 2 2 2 2 2 3 4 5 5 5 5 5 5 4 3 2 3 4 5 6 7 8 8 8 8 8 8 8 8 9 9 10 10
5 3 2 3 4 4 4 3 3 2 1 1 3 3 3 3 3 3 3 2 2 2 2 1 3 6 8 9 7 6 7 7 6 5 6 7 6 5 4 3 4 3 4 3 3 3 3 5 7 6 2 4 3 1 0 1 3 3 4 4 4 4 4 4 4 4 3 2 2 3 5 6 7 8 9 9 9 9 9 9 9 9 9 10 10
4 3 1 2 4 4 4 3 3 3 1 1 3 3 2 3 2 2 3 1 1 1 1 2 6 7 8 9 8 7 6 6 7 6 6 7 5 4 6 5 4 4 4 3 3 3 4 4 6 6 4 3 4 1 1 2 3 3 3 3 3 4 4 4 5 4 3 3 3 4 5 6 7 7 8 9 10 10 10 10 9 9 9 9 10
4 3 2 2 3 4 4 2 2 3 2 2 3 2 2 2 2 3 3 2 2 2 3 3 6 7 7 8 8 9 7 5 7 7 7 7 5 3 5 7 5 6 4 3 3 1 2 3 4 4 3 4 4 1 1 2 2 2 2 2 3 4 4 4 5 5 4 4 4 5 6 6 7 7 8 9 9 10 10 10 10 9 9 9 9
3 3 3 3 3 4 3 2 2 2 1 2 2 1 2 2 2 3 3 2 3 4 4 2 3 6 6 7 7 7 7 7 7 7 7 6 6 5 4 7 7 6 6 4 4 2 2 1 3 5 4 5 4 2 2 1 1 0 0 2 3 4 5 4 4 5 5 5 5 6 7 7 7 8 8 9 9 10 10 10 10 10 9 8 8
4 4 3 3 3 3 3 3 2 2 1 1 0 1 0 2 2 3 4 3 2 5 4 4 3 5 4 3 4 4 4 8 8 7 10 8 5 5 4 6 7 5 5 6 4 2 0 1 1 2 4 4 3 4 3 3 4 2 1 2 4 5 5 4 4 5 5 5 6 6 7 8 8 8 9 9 10 10 11 11 10 10 9 9 8
5 4 3 3 3 2 2 3 3 3 2 1 2 2 1 1 1 2 4 5 3 4 4 6 8 6 3 2 0 4 1 5 6 1 6 9 6 5 4 5 8 4 2 5 5 4 2 2 2 2 1 1 3 5 5 4 4 3 3 4 5 6 5 4 4 4 5 5 6 7 8 8 9 9 10 10 11 12 12 11 11 10 10 9 8
6 4 4 3 3 2 2 3 3 3 2 2 1 1 1 1 1 2 3 4 6 4 4 6 8 5 3 1 1 3 1 2 3 2 2 5 6 5 3 4 6 5 3 4 5 5 5 4 3 2 1 2 1 4 6 6 6 5 6 7 7 6 6 5 4 4 5 6 7 8 8 9 9 10 11 11 12 12 13 12 12 11 10 10 9
6 5 4 3 3 2 2 2 3 3 2 1 1 2 2 2 2 2 3 5 5 7 6 4 6 3 4 4 1 1 0 1 1 1 1 1 2 5 6 4 4 6 6 4 4 4 4 3 2 2 1 1 1 3 4 4 6 6 6 7 7 7 6 5 5 5 6 7 8 9 10 11 11 12 12 12 13 13 13 13 13 12 11 10 9
6 5 4 4 3 3 3 2 2 3 2 2 2 2 2 2 2 2 3 4 4 5 6 5 3 0 3 4 1 0 3 3 1 1 1 1 1 4 5 5 4 5 4 2 4 2 2 1 1 3 1 1 1 2 3 4 7 8 8 7 7 7 6 7 7 7 8 9 10 10 11 12 12 13 14 13 14 14 14 14 14 14 12 11 10
6 6 5 4 4 3 3 3 3 3 3 3 3 1 2 2 2 2 2 2 2 3 3 4 4 3 2 4 3 1 1 3 4 3 2 0 2 3 2 5 6 3 4 5 5 1 2 4 2 3 1 1 2 2 4 4 6 8 10 9 9 9 8 8 9 9 11 11 12 12 12 13 14 14 15 14 15 15 15 15 15 15 14 13 12
6 6 6 5 5 4 4 3 4 3 3 3 2 0 1 1 1 1 1 1 1 2 1 1 3 2 2 2 3 2 3 2 4 4 3 1 1 1 4 6 5 2 3 4 3 3 2 2 2 3 2 2 4 5 5 4 6 8 9 10 11 12 11 11 11 12 13 13 13 14 13 14 14 14 15 15 16 16 15 16 16 16 15 14 13
8 7 7 7 6 5 5 4 4 4 3 2 1 2 1 1 1 0 0 1 1 0 1 2 2 2 1 2 1 2 3 2 2 2 3 4 4 3 6 6 4 3 4 3 3 5 4 3 4 1 1 3 5 6 5 4 6 8 10 14 14 15 14 13 14 13 13 13 13 13 13 14 14 15 15 15 15 14 14 15 15 14 14 13 13
8 8 8 8 7 6 5 4 4 3 3 3 3 3 2 3 2 1 1 2 2 2 3 3 2 3 3 2 4 5 3 2 1 1 3 4 2 2 5 3 0 3 5 4 6 5 4 6 6 1 2 3 4 6 6 6 9 10 12 15 15 16 15 14 15 14 12 12 12 12 13 13 13 14 14 13 13 13 14 14 13 12 12 12 13
7 7 9 9 8 7 6 4 4 3 4 3 2 3 2 2 2 1 2 2 3 3 3 4 3 3 4 2 4 6 4 2 1 2 4 4 2 5 4 4 4 1 3 7 6 5 6 5 5 4 2 3 5 5 5 8 12 12 11 11 14 17 15 14 16 15 12 11 11 12 12 12 13 13 13 13 13 14 14 13 12 11 12 12 13
7 7 8 9 8 7 6 5 4 3 4 2 1 2 2 1 1 2 3 2 3 3 3 5 4 4 6 4 4 5 3 3 1 3 3 3 2 6 5 6 5 2 3 7 4 6 8 5 4 4 2 4 6 6 7 9 10 9 9 10 15 15 12 14 17 16 15 13 13 13 13 14 14 13 14 14 14 14 14 13 12 12 13 13 13
7 7 7 7 8 7 7 6 5 4 4 3 3 2 2 2 2 3 3 2 3 4 4 5 4 4 5 5 6 8 6 6 5 2 1 4 5 7 7 6 7 4 4 6 5 7 6 5 5 3 1 4 6 8 9 10 9 10 12 15 14 12 12 15 17 17 16 15 14 14 14 14 14 14 14 15 15 15 14 14 14 14 14 15 15
7 7 7 6 7 7 7 6 5 5 5 4 4 3 3 4 3 3 3 2 3 5 5 5 5 4 4 4 5 6 4 6 9 4 5 5 4 5 3 4 5 4 4 5 6 5 3 3 3 3 0 3 6 8 9 10 11 12 13 13 12 13 14 15 15 16 16 13 13 13 13 14 14 14 15 15 16 16 16 15 15 15 16 16 16
7 8 8 8 7 7 7 7 6 6 5 5 5 4 3 4 3 4 5 4 3 4 5 5 5 4 4 3 4 5 4 5 8 6 5 4 3 4 3 3 3 3 3 4 6 6 7 6 1 2 1 3 5 8 9 11 11 9 10 12 12 13 13 13 15 16 14 12 13 13 14 15 15 15 15 15 16 17 17 17 17 17 17 17 17
8 9 9 9 9 8 8 8 7 6 6 6 6 4 4 5 4 4 6 5 2 3 5 4 4 5 4 3 3 5 4 4 6 5 3 3 4 4 4 3 3 3 3 2 4 7 8 8 4 1 1 3 6 7 8 10 10 10 11 12 12 12 13 16 17 16 13 12 14 15 15 15 16 16 16 16 16 16 17 18 18 18 18 18 18
8 7 9 10 9 9 8 8 8 8 7 7 6 6 6 5 5 5 6 5 3 4 5 4 4 5 4 3 3 5 4 4 7 5 1 1 4 5 4 4 3 3 3 3 4 7 9 9 8 5 5 8 8 8 9 10 12 13 12 12 12 13 16 20 19 16 13 13 15 15 14 16 17 17 17 17 17 17 16 17 17 18 18 19 19
8 6 8 9 9 10 9 9 9 8 8 8 7 7 7 6 6 7 7 6 5 5 4 5 5 4 4 4 4 5 5 5 7 6 3 3 4 5 4 4 3 3 4 4 4 6 9 10 11 10 10 10 9 9 10 11 13 14 12 12 14 15 18 20 19 16 15 16 17 15 13 15 18 18 18 18 18 17 16 16 16 17 18 19 19
9 8 8 9 9 10 10 10 10 9 9 9 8 8 8 7 8 8 6 6 6 6 5 6 5 3 4 5 5 5 6 6 6 7 6 5 5 5 5 4 4 5 4 5 5 7 9 10 12 12 11 11 10 9 9 10 12 13 12 13 15 17 18 18 18 17 17 18 17 14 13 17 20 20 19 20 19 17 17 17 16 17 17 18 19
10 10 10 9 9 10 10 10 10 10 9 9 8 8 8 8 9 8 7 6 7 6 6 6 6 5 5 6 7 7 7 7 7 7 7 6 6 6 6 5 6 6 4 5 7 8 9 10 11 12 12 12 12 10 9 11 13 13 14 15 16 17 17 17 18 17 18 21 18 13 14 21 23 20 20 22 21 19 19 19 17 17 17 17 18
11 11 10 10 10 10 11 10 10 9 9 9 9 9 9 9 9 9 8 7 8 7 7 7 7 7 6 7 8 8 8 8 8 8 8 7 7 7 6 6 6 6 5 6 8 9 10 11 12 12 12 11 12 11 12 13 14 14 15 16 16 16 16 17 18 18 19 21 17 14 20 25 23 19 20 21 21 21 22 21 19 17 16 17 17
12 12 11 11 11 11 11 10 10 10 9 10 11 10 9 9 9 9 8 7 8 8 8 8 7 8 8 8 8 9 9 8 8 8 8 8 8 8 8 8 8 8 8 8 8 9 11 11 12 13 13 12 13 13 13 14 14 15 16 16 16 17 17 17 18 19 19 19 17 20 25 23 20 19 20 20 21 23 24 23 21 18 16 16 16
13 13 12 12 11 12 12 10 10 11 10 11 11 11 10 10 9 9 8 8 8 8 8 8 8 8 8 9 9 9 9 9 8 8 9 9 9 8 9 8 8 9 9 9 9 9 10 12 12 13 13 14 14 14 14 15 15 16 16 17 17 17 18 18 18 18 18 18 21 23 22 19 20 21 19 19 22 25 25 23 21 19 17 16 16
13 13 13 12 12 12 12 12 11 11 11 11 11 12 11 11 10 10 10 9 9 9 9 9 8 9 9 9 9 9 9 9 9 9 9 9 9 9 9 9 9 9 9 9 10 10 11 13 13 14 14 15 15 14 14 15 15 16 17 17 17 18 18 18 17 17 17 19 21 20 19 21 22 20 17 20 24 24 24 22 21 20 17 15 15
14 13 13 13 13 13 13 13 12 12 12 12 12 12 12 11 10 10 10 10 10 10 10 10 10 10 10 10 10 10 10 10 10 10 9 9 9 9 10 10 10 10 11 11 11 11 12 13 14 15 15 14 15 14 14 14 16 17 18 18 17 17 17 17 17 18 18 19 19 19 21 22 19 17 20 24 24 23 23 21 20 19 17 14 14
15 14 14 14 13 14 14 13 13 13 12 12 12 12 12 12 11 11 11 10 10 10 10 10 11 11 11 11 11 11 11 11 11 10 10 10 10 10 11 11 11 11 12 12 12 12 13 14 14 15 15 15 15 15 15 16 16 16 16 17 17 17 17 18 18 19 19 20 20 20 21 20 18 19 23 24 23 23 22 20 19 19 16 13 13
15 15 15 15 14 14 14 14 14 14 13 14 14 13 13 12 12 11 11 11 11 10 11 11 11 11 12 12 12 12 11 11 11 12 11 10 10 11 11 10 11 11 12 12 13 13 13 14 15 15 15 16 16 16 16 15 15 15 15 17 19 20 19 18 18 19 20 21 22 21 20 18 19 21 23 23 23 22 20 19 19 16 12 12 14
15 15 15 15 15 14 14 14 14 14 15 15 14 14 14 13 13 12 11 11 11 11 11 11 12 12 12 13 13 12 11 10 10 12 13 12 12 12 11 10 10 11 12 13 13 13 14 14 15 16 16 16 15 16 16 16 16 18 18 19 21 21 21 21 21 20 20 21 23 22 21 19 20 22 23 23 22 19 18 19 15 8 7 11 15
15 15 15 15 15 15 15 14 15 15 16 15 15 15 15 13 12 11 11 11 12 11 11 11 12 12 13 14 14 13 12 12 12 14 15 16 15 15 14 13 13 12 12 13 14 14 15 15 16 16 16 16 17 17 18 19 20 20 19 19 20 22 22 22 21 20 19 19 21 23 22 21 21 24 24 22 20 18 17 15 10 8 12 16 17
14 14 14 15 16 16 16 15 15 15 15 15 16 17 17 16 13 11 11 12 12 12 11 12 13 14 14 15 15 14 15 15 16 16 17 17 16 17 18 18 19 17 16 15 15 15 16 16 17 17 17 18 19 19 19 20 21 20 20 20 20 21 20 18 19 20 18 18 20 23 25 23 21 23 23 21 19 18 16 14 13 15 18 18 16
15 14 15 16 16 16 16 16 16 16 15 15 16 16 17 18 17 14 13 13 13 13 13 13 14 14 14 15 15 16 15 14 13 14 14 14 14 16 17 18 19 19 19 19 18 17 17 17 16 17 17 18 19 19 19 19 21 22 22 22 21 20 19 19 19 20 20 20 21 24 25 24 21 21 22 20 18 18 17 16 17 17 16 16 17
14 15 16 16 16 17 17 16 16 16 16 15 16 16 16 17 17 15 14 14 14 14 13 13 13 13 13 13 14 15 15 14 12 11 12 12 13 15 17 17 17 17 17 18 19 20 21 20 19 18 17 18 19 20 19 20 21 22 22 22 22 21 22 21 21 23 25 24 22 23 24 23 20 19 20 19 18 18 19 19 18 16 15 17 18
15 15 16 16 16 17 17 17 17 15 11 10 12 14 16 16 15 15 14 14 15 15 14 14 14 14 14 13 13 14 14 13 12 12 12 11 11 12 13 13 13 13 13 14 16 17 18 20 21 20 19 18 19 20 21 21 20 20 21 22 23 24 25 26 26 27 27 24 21 21 21 21 19 18 19 19 19 19 18 19 18 18 18 19 18
13 14 15 15 15 15 15 15 14 10 5 7 12 13 13 13 14 14 14 14 15 16 15 15 15 15 14 14 14 12 9 8 8 8 9 9 9 9 10 11 11 11 13 14 14 14 14 16 18 20 19 19 19 21 23 24 23 22 22 22 22 23 25 25 25 24 22 21 19 18 18 19 19 19 20 20 20 20 18 17 18 19 20 19 16
13 13 14 13 11 10 11 10 8 4 3 6 8 11 11 11 12 12 13 15 17 17 17 16 16 14 12 11 9 7 5 6 7 6 7 8 9 9 10 12 11 11 13 14 14 14 15 15 17 19 21 21 21 23 26 26 25 25 24 22 20 20 21 22 22 21 19 19 18 18 18 19 19 19 20 21 20 20 19 17 17 18 17 16 16
13 12 12 12 10 8 10 11 7 6 8 8 6 8 10 11 12 11 12 14 15 15 16 14 11 8 8 8 6 4 6 7 8 7 8 8 8 8 10 11 11 11 12 13 14 15 16 17 18 20 22 22 23 26 27 26 24 23 23 22 19 19 20 19 19 21 20 19 18 18 17 18 18 18 19 19 19 19 18 17 16 16 16 16 18
8 10 10 12 14 13 12 12 7 3 7 10 10 12 13 13 14 13 10 11 13 13 14 13 9 6 7 8 6 4 6 7 7 7 8 8 7 5 7 9 11 12 13 13 13 13 14 16 18 20 21 22 23 25 26 25 22 20 21 22 20 19 20 19 18 21 22 19 16 14 14 16 18 18 19 20 20 19 18 17 17 17 18 19 20
5 8 8 8 11 10 8 10 9 4 4 6 8 10 12 13 14 11 7 9 13 14 12 12 10 7 5 7 8 6 5 5 4 5 6 7 6 5 6 8 10 11 10 11 12 13 15 17 17 18 19 20 20 21 22 21 19 16 17 19 19 17 17 18 18 18 17 16 15 14 14 16 17 17 18 17 15 16 17 18 19 20 20 21 21
Wind_Direction
151 150 150 151 147 148 146 140 145 144 142 136 127 134 140 143 147 142 134 129 134 136 139 140 131 125 126 127 125 123 117 117 126 125 126 133 109 78 97 114 121 142 156 157 159 165 172 180 185 201 220 357 328 308 309 313 305 310 323 318 322 329 324 320 317 317 314 314 313 310 307 301 294 288 288 289 288 289 288 287 285 284 283 281 279
143 142 144 149 152 152 145 144 147 134 127 124 116 124 135 140 140 132 126 123 132 143 137 130 125 123 127 130 127 123 122 124 131 130 124 132 126 82 82 103 110 117 129 140 144 158 172 180 190 201 213 229 243 253 268 282 290 298 313 322 337 346 334 331 335 341 343 338 332 329 327 321 317 310 304 302 297 294 291 289 285 282 281 279 276
132 133 137 142 147 147 139 134 127 119 117 116 116 116 119 121 115 118 130 126 128 142 132 128 126 126 130 127 124 123 130 141 135 127 118 121 131 105 81 85 94 103 110 117 124 137 144 147 152 150 150 152 142 131 91 45 35 47 45 33 33 28 15 10 9 10 9 5 358 352 348 341 336 331 325 319 314 310 303 298 296 292 290 285 279
129 132 136 137 139 135 126 121 116 116 114 114 118 121 120 116 114 120 123 125 125 122 133 132 127 135 137 125 122 119 124 140 123 115 113 117 134 136 103 75 73 82 93 101 104 112 116 115 114 108 108 97 87 83 79 81 79 74 69 62 53 44 39 33 28 24 20 12 4 355 349 342 336 330 325 321 317 313 308 303 301 297 294 288 282
126 129 132 131 130 126 122 118 113 114 116 119 118 114 113 111 120 115 109 139 132 119 126 122 121 142 138 123 118 116 123 126 112 115 120 119 124 132 131 110 70 65 72 81 87 95 99 100 101 97 95 90 84 82 78 77 75 72 67 61 55 47 40 33 24 17 10 2 354 346 339 333 327 323 318 314 311 307 303 299 295 291 289 286 283
126 129 127 126 125 123 119 115 115 115 117 118 109 98 91 86 86 98 118 129 104 103 106 113 124 130 117 113 113 124 136 117 107 113 106 104 108 111 128 142 154 89 69 65 63 77 89 87 91 91 88 86 82 75 71 70 66 65 62 56 52 44 35 24 16 8 360 352 345 339 332 328 322 317 313 309 305 302 301 299 296 294 293 292 288
127 124 126 130 124 121 117 114 115 106 105 102 100 104 94 78 27 22 44 64 75 93 90 102 122 107 98 102 105 113 111 98 107 116 104 97 97 87 90 96 121 151 189 50 40 47 71 79 78 81 84 81 77 72 65 65 62 60 57 51 45 36 29 21 14 7 358 351 347 343 338 331 324 317 312 308 306 304 304 303 302 300 300 299 296
127 119 128 131 122 120 116 114 114 102 107 100 91 101 96 85 44 19 16 22 18 53 83 107 138 128 131 118 110 112 110 110 119 112 101 98 100 96 86 60 57 60 348 242 5 28 43 54 68 72 81 79 73 75 68 65 61 58 53 46 45 37 31 25 16 12 6 6 5 3 1 353 346 338 329 323 318 316 315 312 310 308 307 306 303
133 127 119 125 120 120 119 120 118 106 113 106 93 99 93 86 64 40 22 10 350 1 67 139 164 136 128 116 110 105 100 97 96 97 93 94 109 110 103 96 82 56 16 26 255 346 12 22 54 60 59 67 71 76 72 72 62 57 58 50 48 39 29 22 13 11 14 26 31 28 27 23 18 12 5 356 346 342 337 329 324 321 318 315 311
139 136 106 117 117 113 119 122 113 113 134 125 95 82 75 77 72 58 27 9 360 9 36 168 159 129 115 107 104 103 100 100 104 112 120 111 103 104 100 107 102 68 50 71 33 336 327 339 2 28 44 36 34 79 72 86 81 70 71 59 47 34 21 14 5 2 7 28 32 29 30 29 30 28 24 20 12 7 357 345 337 330 325 320 316
145 145 109 120 123 117 122 124 117 115 139 131 95 79 70 54 57 57 15 348 356 3 360 28 84 96 101 102 103 104 105 119 127 119 125 117 116 130 120 111 118 99 83 81 28 8 325 310 317 307 324 8 2 53 75 103 106 95 87 66 47 32 16 4 357 351 342 338 355 11 22 25 27 27 26 24 21 18 10 1 349 338 329 322 317
146 148 124 117 123 126 127 126 122 110 69 51 78 75 61 30 26 12 343 322 337 6 26 76 95 91 97 108 110 108 112 142 144 127 130 127 128 144 123 118 124 105 79 55 43 21 349 329 317 295 267 319 349 15 142 132 120 110 93 65 43 28 13 359 356 354 339 326 338 353 7 14 15 16 17 18 17 16 12 8 360 348 336 328 323
151 147 139 123 113 121 123 116 115 105 56 40 60 57 30 360 342 319 325 7 7 59 68 75 113 115 112 116 117 122 132 154 148 135 136 135 136 134 136 146 136 112 106 70 76 74 326 349 327 310 283 282 310 360 103 122 122 118 90 49 30 10 1 354 354 356 346 333 331 339 350 356 359 2 4 7 7 7 6 4 1 355 345 336 330
159 149 146 145 126 126 128 119 108 108 88 71 71 47 9 336 335 322 326 21 33 67 57 14 138 138 124 122 130 136 140 139 146 151 137 139 151 144 158 160 142 127 136 127 109 168 218 67 360 336 323 286 270 265 265 251 266 260 45 4 357 345 344 345 350 357 354 346 337 334 337 341 345 347 349 352 354 355 354 354 354 353 347 339 333
160 158 155 154 142 145 145 137 127 129 134 126 147 103 359 319 360 356 342 336 43 88 49 352 55 105 98 112 131 122 135 130 136 159 145 147 155 147 173 152 128 128 148 157 147 129 225 94 77 329 316 307 304 295 274 254 272 295 312 325 327 327 335 333 338 352 354 352 347 343 340 339 342 341 342 342 343 343 342 341 342 344 342 336 332
161 164 161 155 155 167 151 139 150 156 158 186 208 185 176 333 28 30 10 344 353 88 81 38 44 60 71 288 45 92 79 107 109 172 131 138 154 157 181 139 124 138 151 165 161 139 148 154 154 176 259 344 349 324 309 290 284 298 310 321 324 321 327 326 323 338 344 349 347 345 345 342 342 340 339 338 337 337 335 332 330 332 334 332 329
163 165 163 160 162 164 152 152 166 176 191 209 211 184 145 116 68 25 47 25 353 11 72 80 70 62 96 225 17 90 301 38 107 299 33 124 147 137 143 126 133 167 173 162 161 166 175 168 179 177 112 90 57 336 329 321 304 300 302 310 321 321 321 319 312 316 321 329 332 333 335 334 334 332 330 331 331 333 333 331 326 324 326 328 327
167 167 163 164 164 161 175 187 176 184 218 238 222 187 160 126 92 34 59 65 10 355 10 58 96 104 131 136 86 97 94 25 99 270 7 85 114 132 154 149 147 173 179 181 154 163 183 161 208 221 141 96 79 338 336 328 311 302 292 297 311 318 321 320 314 314 314 317 321 323 325 325 326 324 323 324 325 328 330 330 328 323 320 320 322
169 168 169 170 169 171 183 209 204 194 209 221 238 219 138 96 82 53 43 63 39 16 13 12 37 94 139 127 243 13 108 126 159 211 196 42 127 166 166 150 163 175 157 137 122 148 240 144 243 253 180 80 24 330 323 322 314 305 294 300 315 318 320 322 318 317 316 315 316 317 320 321 321 321 320 320 321 324 325 326 327 324 319 314 312
171 172 182 183 181 189 192 217 232 208 213 218 240 266 92 84 71 58 42 56 47 40 33 6 341 325 31 38 336 328 152 165 152 180 214 9 153 180 226 178 172 155 104 107 119 163 225 156 212 276 266 315 318 313 304 306 315 307 291 298 319 323 325 326 322 320 316 313 312 311 313 315 317 318 317 318 318 320 322 324 325 323 321 315 306
181 179 188 194 190 197 201 217 235 222 225 229 218 196 102 101 86 51 25 36 48 51 30 332 310 318 75 37 325 318 286 227 165 188 189 213 183 174 257 209 150 121 152 152 166 239 228 171 264 265 228 307 326 311 297 307 325 314 293 300 320 324 327 329 326 323 317 313 311 310 312 314 316 317 316 317 317 318 321 323 325 324 323 319 310
188 185 188 197 195 201 205 210 227 226 228 241 219 185 160 157 199 260 309 333 335 243 277 270 294 319 112 144 244 281 299 281 219 223 188 213 218 197 239 221 142 158 182 171 232 249 251 270 283 211 190 322 335 312 302 317 318 306 296 306 318 320 324 331 332 330 322 317 314 312 314 316 317 318 318 319 317 318 322 324 326 328 329 327 320
191 188 194 199 195 201 209 210 216 223 231 240 227 208 198 194 193 225 249 272 288 284 287 271 258 279 248 182 217 218 220 261 247 275 283 271 271 251 248 263 336 169 164 197 228 232 238 258 278 324 56 354 324 305 298 297 300 296 288 298 315 319 319 327 332 335 330 325 322 317 319 320 321 322 321 321 319 318 321 323 324 329 336 337 333
193 191 200 197 191 198 206 208 204 214 234 237 235 238 235 205 169 209 244 249 273 280 280 271 255 264 264 228 234 225 204 245 148 113 288 297 304 277 285 355 342 132 182 228 220 220 229 232 268 294 11 350 297 285 280 280 289 287 271 288 318 314 308 318 329 336 336 333 332 328 328 327 326 326 323 320 317 316 317 317 317 322 330 335 336
198 198 205 194 189 197 197 197 193 200 222 217 215 252 267 275 168 239 249 235 265 272 267 272 270 279 292 298 291 305 331 300 234 151 258 286 283 298 343 352 317 318 290 277 265 263 255 232 244 259 309 318 283 277 285 287 285 274 273 305 317 306 301 316 326 333 334 332 332 329 328 327 326 324 322 320 318 316 313 311 310 313 318 323 326
203 203 203 193 189 193 192 193 190 192 207 206 199 214 240 253 256 270 265 228 255 269 263 272 272 265 285 299 308 328 348 321 294 209 64 359 336 342 6 340 312 317 309 289 274 267 256 239 230 215 253 283 279 281 285 294 292 282 296 312 311 305 311 317 321 328 330 330 332 331 331 330 328 324 321 320 319 317 313 308 306 306 309 313 315
196 201 196 192 189 185 188 194 194 198 204 207 205 206 216 233 256 278 269 232 249 269 266 268 270 264 275 289 302 315 326 308 301 321 59 49 341 338 353 324 315 311 308 304 292 287 289 272 212 142 207 275 288 292 285 291 289 282 300 314 310 308 311 310 315 322 326 332 336 337 338 337 335 331 326 321 317 313 310 307 304 302 302 304 307
186 195 191 193 191 187 195 196 194 202 203 205 212 208 209 225 245 263 260 247 242 263 269 269 268 262 263 271 292 296 293 300 305 323 17 22 340 321 301 312 336 324 323 329 324 325 325 319 295 154 249 269 286 295 288 286 282 284 309 316 307 304 301 300 309 314 317 326 332 335 337 336 335 333 331 326 320 313 308 305 302 300 299 298 300
197 196 190 194 194 194 201 199 196 203 203 206 213 210 214 229 233 244 259 261 255 260 265 270 269 263 253 240 259 275 278 295 298 303 336 335 314 296 300 337 359 336 332 340 323 311 309 317 316 225 274 286 280 282 286 290 295 304 313 310 304 302 296 298 306 307 302 309 320 325 329 333 332 330 329 327 323 319 312 306 303 301 299 297 296
205 196 186 190 195 197 202 202 199 202 205 207 209 208 218 231 229 237 252 255 255 257 258 263 262 264 268 263 275 281 278 293 294 289 298 317 299 299 312 336 341 327 327 325 305 304 310 316 318 324 325 311 303 303 308 309 308 308 310 308 304 301 299 302 307 303 293 296 308 312 319 330 331 327 327 326 324 323 319 313 308 303 300 298 297
201 196 189 192 195 198 203 206 203 202 205 207 205 206 216 225 229 239 243 236 241 251 248 252 247 238 255 265 271 275 274 283 285 282 282 281 287 294 296 301 305 303 304 301 295 307 313 310 310 313 310 310 317 318 316 311 306 306 307 305 302 302 304 306 308 306 299 297 300 299 307 324 327 324 324 324 323 322 322 321 316 309 303 299 296
201 200 203 205 201 200 203 207 208 206 205 210 208 205 212 219 227 240 234 215 227 242 239 245 248 230 233 250 254 257 265 271 272 274 277 273 271 279 284 287 284 274 270 276 281 293 302 301 303 306 308 317 321 314 312 307 303 305 304 302 303 305 306 306 308 309 307 305 300 290 298 318 322 319 319 322 322 320 322 322 318 313 308 302 298
207 204 208 212 209 208 208 208 211 208 201 208 211 204 208 216 222 231 224 212 226 237 237 242 250 250 243 247 254 258 262 266 271 276 276 273 267 264 264 266 271 270 259 264 280 292 297 298 301 305 311 315 310 308 310 303 301 302 299 298 300 301 303 304 307 307 308 309 301 288 304 319 317 313 316 320 319 318 321 322 317 312 308 304 302
210 211 211 213 212 212 213 210 211 207 196 204 214 210 211 214 219 225 219 219 230 234 235 238 241 247 248 249 255 258 258 258 263 273 278 281 283 280 280 281 283 285 280 283 293 298 299 301 304 304 306 305 302 304 303 297 297 296 293 295 298 300 303 305 306 306 305 306 302 303 314 315 308 306 313 317 317 319 321 322 320 312 304 303 302
211 213 214 215 212 211 216 213 208 208 201 205 217 219 217 215 222 233 225 218 228 232 235 238 239 244 246 249 255 258 261 261 261 272 282 288 292 294 294 292 291 292 291 293 292 290 293 298 300 301 304 306 303 302 300 297 296 295 295 298 300 301 304 305 305 304 303 305 306 308 308 304 301 306 312 312 314 318 319 320 322 316 305 301 300
213 213 214 217 211 206 214 215 209 212 213 213 219 221 222 221 224 235 233 228 232 236 240 242 242 248 250 253 257 260 266 271 271 273 277 279 281 284 283 281 280 281 283 284 282 283 288 292 296 299 303 303 301 301 302 301 300 300 299 299 301 302 302 303 303 302 304 305 304 303 304 305 305 307 309 310 312 316 316 316 320 320 311 301 297
219 216 213 215 212 205 211 215 213 217 220 222 226 226 227 228 227 231 233 233 234 236 240 244 245 249 253 255 259 262 263 266 267 268 271 275 278 279 281 283 283 285 287 288 287 286 286 288 293 296 297 297 297 299 301 302 302 302 301 300 302 302 300 300 302 303 306 306 304 308 314 311 306 305 309 312 311 311 311 312 316 319 317 307 300
222 222 216 215 214 210 213 217 217 220 223 225 229 231 233 232 230 233 234 233 234 236 239 241 243 245 248 251 255 257 260 262 264 267 271 276 280 281 283 287 290 292 293 290 288 286 282 284 287 291 293 295 297 300 301 301 301 301 302 302 302 302 302 303 302 303 305 306 307 311 312 307 306 311 314 312 309 308 309 310 311 313 313 309 306
220 224 222 217 216 215 217 219 221 221 223 226 227 230 235 236 233 234 236 236 237 239 240 242 245 247 248 250 250 249 252 256 261 268 271 271 272 275 279 283 285 288 289 288 290 289 288 289 289 292 296 299 300 301 300 298 294 292 296 300 302 303 302 300 299 300 303 305 305 305 305 306 310 313 311 310 309 309 309 305 304 307 307 302 303
218 224 226 221 217 218 218 219 222 222 221 224 226 226 230 234 236 235 235 237 239 241 246 247 248 250 253 254 254 252 249 249 254 259 262 270 278 279 280 284 285 285 288 290 292 292 291 292 293 295 297 296 294 294 296 297 295 296 303 306 305 303 301 297 297 299 302 304 304 304 305 308 310 310 310 310 308 307 304 301 303 305 302 296 302
221 223 227 226 222 221 220 219 222 225 225 225 225 226 227 231 237 241 243 244 245 244 248 252 253 254 257 258 258 258 258 258 256 251 253 265 278 280 282 289 291 288 287 286 286 287 286 286 288 290 292 292 293 298 305 309 310 312 312 309 305 305 306 305 301 300 300 302 303 305 305 305 306 308 310 308 305 303 303 305 305 298 294 305 312
224 224 227 229 226 225 224 221 222 226 230 231 229 225 223 225 232 240 247 249 248 246 248 255 258 258 259 261 263 265 264 263 261 260 263 269 270 265 264 268 271 274 279 281 283 285 285 286 289 294 298 300 304 312 316 316 317 318 315 311 308 307 308 306 302 301 301 302 304 305 303 301 302 305 306 304 304 304 304 302 292 279 294 304 311
224 225 226 228 229 230 229 226 226 230 232 236 236 228 221 220 224 235 247 248 247 248 248 252 257 259 261 263 264 264 260 256 257 262 267 268 266 261 258 257 258 261 265 272 278 285 289 292 295 299 304 305 308 316 319 316 316 317 316 313 310 307 306 305 303 304 305 308 308 303 299 297 296 298 300 300 301 302 302 299 293 294 297 298 304
221 222 224 226 228 232 234 233 234 237 238 240 240 233 225 225 229 236 249 252 250 250 249 249 252 256 260 263 265 266 265 259 255 255 257 261 264 267 266 263 261 259 258 261 266 273 281 288 294 297 299 303 307 312 315 315 315 316 315 312 309 309 310 307 303 302 304 309 307 299 295 296 296 296 296 296 298 302 305 304 301 298 297 300 308
222 222 224 227 228 231 237 241 242 245 250 248 245 238 228 225 229 233 242 252 256 257 256 255 256 259 261 265 269 271 274 277 275 264 256 258 266 273 275 275 273 270 268 267 267 269 273 278 282 286 291 298 303 306 310 315 317 317 314 311 309 310 307 302 299 297 299 302 299 293 292 295 299 298 295 296 300 303 306 306 303 300 299 302 305
227 226 226 226 228 231 236 240 244 250 256 244 232 228 222 221 227 234 241 249 254 257 259 261 261 262 264 267 269 271 277 285 287 279 269 267 270 275 276 278 279 276 275 278 280 281 280 277 276 279 286 292 298 303 308 312 313 311 308 306 305 304 299 295 293 292 294 295 291 287 289 294 298 296 293 297 302 303 308 310 307 305 300 297 297
236 234 233 231 232 234 236 242 249 251 230 191 193 201 208 217 227 234 242 249 253 256 258 259 260 263 267 268 270 277 291 300 288 275 268 263 265 276 283 283 281 272 266 270 278 284 287 282 278 280 285 290 296 301 305 308 308 306 306 304 301 299 295 293 294 293 293 296 294 288 287 295 303 303 302 308 310 309 311 313 310 306 299 294 294
246 245 245 245 246 242 238 248 271 274 199 179 186 196 204 217 229 239 249 252 253 253 252 254 258 263 266 265 268 278 290 293 285 275 265 259 266 287 296 292 290 285 279 277 280 282 283 283 283 282 282 285 293 299 302 305 305 306 306 304 300 298 297 298 300 299 300 304 307 305 301 304 311 312 310 313 315 312 312 312 312 310 302 294 296
253 252 254 258 262 252 233 235 257 265 237 230 234 231 227 229 235 244 255 260 263 267 274 280 282 273 259 254 257 262 254 261 272 274 273 278 289 303 302 295 294 293 291 290 290 289 287 285 285 286 285 287 293 298 302 303 303 302 298 294 293 299 303 303 303 305 308 309 312 313 310 309 314 315 313 313 312 309 309 309 311 314 309 302 301
254 242 242 249 247 243 236 230 227 236 239 243 252 251 246 244 244 246 259 274 275 276 288 302 309 306 277 249 222 208 235 255 269 273 277 286 295 304 304 300 295 292 292 296 297 298 297 294 293 295 297 299 299 300 303 304 304 299 289 283 285 293 299 301 304 309 310 307 312 321 314 308 313 316 316 315 311 308 308 310 313 315 313 308 307
239 221 226 243 237 235 242 231 213 201 234 249 262 262 255 253 254 250 258 272 262 254 266 277 270 271 271 235 216 215 235 260 276 282 292 302 306 309 308 299 293 290 291 294 298 302 303 301 301 301 302 302 300 300 300 302 304 302 292 286 285 287 292 298 305 311 307 303 314 327 320 312 313 316 319 321 315 311 314 315 315 314 311 309 309